Change the Weather History Date:

Tuesday, August 26, 2014

  Actual Average Record
Temperature  
Mean Temperature 60 °F -  
Max Temperature 69 °F 75 °F 86 °F (1993)
Min Temperature 51 °F 51 °F 36 °F (1984)
Degree Days  
Heating Degree Days 5    
Growing Degree Days 10 (Base 50)    
Moisture  
Dew Point 57 °F    
Average Humidity 81    
Maximum Humidity 100    
Minimum Humidity 56    
Precipitation  
Precipitation 0.00 in - - ()
Sea Level Pressure  
Sea Level Pressure 30.03 in    
Wind  
Wind Speed 7 mph (WNW)    
Max Wind Speed 17 mph    
Max Gust Speed 24 mph    
Visibility 10 miles    
Events      
Averages and records for this station are not official NWS values.
T = Trace of Precipitation, MM = Missing Value Source: NWS Daily Summary

Daily Weather History Graph

Daily Weather History Graph

Search for Another Location

Airport or City:

Trip Planner

Search our weather history database for the weather conditions in past years. The results will help you decide how hot, cold, wet, or windy it might be!

Date:

Astronomy

Aug. 26, 2014 Rise Set
Actual Time 6:50 AM EDT 8:27 PM EDT
Civil Twilight 6:19 AM EDT 8:59 PM EDT
Nautical Twilight 5:40 AM EDT 9:37 PM EDT
Astronomical Twilight 4:58 AM EDT 10:18 PM EDT
Moon 7:56 AM EDT (8/26) 8:40 PM EDT (8/26)
Length of Visible Light 14h 40m
Length of Day
13h 36m
New Moon, 1% of the Moon is Illuminated
Aug 26
New Moon
Sep 2
First Quarter
Sep 8
Full
Sep 15
Last Quarter
Sep 24
New

Hourly Weather History & Observations

Time (EDT) Temp. Dew Point Humidity Pressure Visibility Wind Dir Wind Speed Gust Speed Precip Events Conditions
12:15 AM 68.0 °F 66.2 °F 94% 29.92 in 9.0 mi SSW 3.5 mph - N/A   Clear
12:35 AM 68.0 °F 66.2 °F 94% 29.92 in 10.0 mi Calm Calm - N/A   Clear
12:55 AM 66.2 °F 64.4 °F 94% 29.93 in 8.0 mi SSW 3.5 mph - N/A   Clear
1:15 AM 66.2 °F 64.4 °F 94% 29.93 in 10.0 mi Calm Calm - N/A   Clear
1:35 AM 66.2 °F 64.4 °F 94% 29.93 in 10.0 mi Calm Calm - N/A   Clear
1:55 AM 66.2 °F 66.2 °F 100% 29.94 in 10.0 mi West 5.8 mph - N/A   Partly Cloudy
2:15 AM 66.2 °F 64.4 °F 94% 29.95 in 10.0 mi West 5.8 mph - N/A   Mostly Cloudy
2:35 AM 66.2 °F 66.2 °F 100% 29.96 in 10.0 mi West 4.6 mph - N/A   Overcast
2:55 AM 66.2 °F 64.4 °F 94% 29.96 in 10.0 mi WSW 3.5 mph - N/A   Overcast
3:15 AM 66.2 °F 64.4 °F 94% 29.96 in 10.0 mi SW 3.5 mph - N/A   Overcast
3:35 AM 66.2 °F 64.4 °F 94% 29.97 in 10.0 mi SW 3.5 mph - N/A   Overcast
3:55 AM 66.2 °F 64.4 °F 94% 29.97 in 10.0 mi WSW 3.5 mph - N/A   Overcast
4:15 AM 66.2 °F 64.4 °F 94% 29.97 in 10.0 mi WSW 3.5 mph - N/A   Overcast
4:35 AM 66.2 °F 64.4 °F 94% 29.97 in 10.0 mi NW 4.6 mph - N/A   Overcast
4:55 AM 66.2 °F 62.6 °F 88% 29.97 in 10.0 mi WNW 5.8 mph - N/A   Overcast
5:15 AM 66.2 °F 60.8 °F 83% 29.97 in 10.0 mi WNW 3.5 mph - N/A   Overcast
5:35 AM 66.2 °F 60.8 °F 83% 29.98 in 10.0 mi West 4.6 mph - N/A   Overcast
5:55 AM 64.4 °F 60.8 °F 88% 29.98 in 10.0 mi WNW 3.5 mph - N/A   Overcast
6:15 AM 64.4 °F 59.0 °F 83% 29.98 in 10.0 mi Calm Calm - N/A   Overcast
6:35 AM 62.6 °F 60.8 °F 94% 29.98 in 10.0 mi WNW 3.5 mph - N/A   Overcast
6:55 AM 64.4 °F 60.8 °F 88% 29.99 in 10.0 mi West 3.5 mph - N/A   Overcast
7:15 AM 62.6 °F 60.8 °F 94% 30.00 in 10.0 mi West 4.6 mph - N/A   Overcast
7:35 AM 62.6 °F 60.8 °F 94% 30.01 in 10.0 mi West 4.6 mph - N/A   Mostly Cloudy
7:55 AM 62.6 °F 60.8 °F 94% 30.00 in 10.0 mi Calm Calm - N/A   Mostly Cloudy
8:15 AM 64.4 °F 60.8 °F 88% 30.01 in 10.0 mi West 5.8 mph - N/A   Overcast
8:35 AM 64.4 °F 60.8 °F 88% 30.01 in 10.0 mi West 6.9 mph - N/A   Overcast
8:55 AM 64.4 °F 59.0 °F 83% 30.01 in 10.0 mi West 8.1 mph - N/A   Overcast
9:15 AM 64.4 °F 59.0 °F 83% 30.01 in 10.0 mi West 9.2 mph - N/A   Overcast
9:35 AM 66.2 °F 59.0 °F 78% 30.02 in 10.0 mi West 11.5 mph - N/A   Overcast
9:55 AM 66.2 °F 57.2 °F 73% 30.02 in 10.0 mi West 12.7 mph 17.3 mph N/A   Scattered Clouds
10:15 AM 68.0 °F 53.6 °F 60% 30.02 in 10.0 mi West 13.8 mph - N/A   Clear
10:35 AM 69.8 °F 55.4 °F 60% 30.03 in 10.0 mi West 15.0 mph 19.6 mph N/A   Clear
10:55 AM 69.8 °F 53.6 °F 56% 30.04 in 10.0 mi West 16.1 mph 20.7 mph N/A   Clear
11:15 AM 69.8 °F 55.4 °F 60% 30.04 in 10.0 mi WNW 11.5 mph 19.6 mph N/A   Partly Cloudy
11:35 AM 68.0 °F 55.4 °F 64% 30.05 in 10.0 mi NNW 10.4 mph 18.4 mph N/A   Mostly Cloudy
11:55 AM 69.8 °F 55.4 °F 60% 30.04 in 10.0 mi West 10.4 mph 16.1 mph N/A   Overcast
12:15 PM 69.8 °F 55.4 °F 60% 30.04 in 10.0 mi NW 11.5 mph - N/A   Overcast
12:35 PM 68.0 °F 55.4 °F 64% 30.04 in 10.0 mi WNW 13.8 mph - N/A   Overcast
12:55 PM 66.2 °F 55.4 °F 68% 30.04 in 10.0 mi NW 12.7 mph - N/A   Overcast
1:15 PM 68.0 °F 53.6 °F 60% 30.05 in 10.0 mi WNW 11.5 mph 19.6 mph N/A   Mostly Cloudy
1:35 PM 68.0 °F 53.6 °F 60% 30.06 in 10.0 mi West 16.1 mph 21.9 mph N/A   Mostly Cloudy
1:55 PM 68.0 °F 53.6 °F 60% 30.06 in 10.0 mi WNW 16.1 mph 20.7 mph N/A   Overcast
2:15 PM 66.2 °F 55.4 °F 68% 30.06 in 10.0 mi NNW 15.0 mph 18.4 mph N/A   Overcast
2:35 PM 66.2 °F 55.4 °F 68% 30.06 in 10.0 mi North 16.1 mph 19.6 mph N/A   Overcast
2:55 PM 64.4 °F 53.6 °F 68% 30.06 in 10.0 mi NNW 16.1 mph 20.7 mph N/A   Overcast
3:15 PM 64.4 °F 53.6 °F 68% 30.06 in 10.0 mi NNW 13.8 mph 21.9 mph N/A   Overcast
3:35 PM 64.4 °F 53.6 °F 68% 30.06 in 10.0 mi NW 16.1 mph 19.6 mph N/A   Mostly Cloudy
3:55 PM 66.2 °F 51.8 °F 60% 30.05 in 10.0 mi NNW 16.1 mph 21.9 mph N/A   Mostly Cloudy
4:15 PM 64.4 °F 51.8 °F 64% 30.05 in 10.0 mi NNW 15.0 mph 24.2 mph N/A   Scattered Clouds
4:35 PM 64.4 °F 51.8 °F 64% 30.05 in 10.0 mi NNW 16.1 mph 21.9 mph N/A   Clear
4:55 PM 64.4 °F 53.6 °F 68% 30.04 in 10.0 mi North 15.0 mph 21.9 mph N/A   Clear
5:15 PM 62.6 °F 53.6 °F 72% 30.04 in 10.0 mi NNW 17.3 mph 20.7 mph N/A   Clear
5:35 PM 62.6 °F 51.8 °F 68% 30.05 in 10.0 mi North 16.1 mph 23.0 mph N/A   Clear
5:55 PM 62.6 °F 51.8 °F 68% 30.06 in 10.0 mi NNW 16.1 mph 20.7 mph N/A   Clear
6:15 PM 62.6 °F 53.6 °F 72% 30.07 in 10.0 mi NNW 10.4 mph 16.1 mph N/A   Clear
6:35 PM 62.6 °F 51.8 °F 68% 30.08 in 10.0 mi NW 11.5 mph - N/A   Clear
6:55 PM 60.8 °F 51.8 °F 72% 30.08 in 10.0 mi NNW 15.0 mph 19.6 mph N/A   Clear
7:15 PM 60.8 °F 51.8 °F 72% 30.08 in 10.0 mi NNW 15.0 mph - N/A   Clear
7:35 PM 60.8 °F 51.8 °F 72% 30.08 in 10.0 mi NNW 10.4 mph 18.4 mph N/A   Clear
7:55 PM 59.0 °F 53.6 °F 82% 30.08 in 10.0 mi NNW 9.2 mph - N/A   Clear
8:15 PM 57.2 °F 53.6 °F 88% 30.08 in 10.0 mi NNW 8.1 mph - N/A   Clear
8:35 PM 57.2 °F 53.6 °F 88% 30.08 in 10.0 mi NNW 5.8 mph - N/A   Clear
8:55 PM 55.4 °F 53.6 °F 94% 30.08 in 10.0 mi NNW 5.8 mph - N/A   Clear
9:15 PM 55.4 °F 53.6 °F 94% 30.09 in 10.0 mi NNW 4.6 mph - N/A   Clear
9:35 PM 55.4 °F 53.6 °F 94% 30.09 in 10.0 mi North 3.5 mph - N/A   Clear
9:55 PM 53.6 °F 53.6 °F 100% 30.09 in 10.0 mi NNW 5.8 mph - N/A   Clear
10:15 PM 53.6 °F 53.6 °F 100% 30.10 in 10.0 mi WNW 4.6 mph - N/A   Clear
10:35 PM 53.6 °F 51.8 °F 94% 30.10 in 10.0 mi West 5.8 mph - N/A   Clear
10:55 PM 51.8 °F 51.8 °F 100% 30.11 in 10.0 mi West 6.9 mph - N/A   Clear
11:15 PM 51.8 °F 51.8 °F 100% 30.11 in 10.0 mi West 4.6 mph - N/A   Mostly Cloudy
11:35 PM 53.6 °F 51.8 °F 94% 30.10 in 10.0 mi WNW 6.9 mph - N/A   Overcast
11:55 PM 53.6 °F 53.6 °F 100% 30.10 in 10.0 mi NW 8.1 mph - N/A   Scattered Clouds